When you browse on this site, cookies collect data to enhance your experience and personalize the content and advertising you see.
Visit our Privacy Policy to learn more. By continuing to use the site, you agree to this use of cookies and data.
  • en France
  • Liste des pays
  • À 7 jours
  • Température de l'eau
  • Carte météo
  • Widgets météo
  • user-avatar
    Se connecter

    Météo par heure à Innsbruck

    Ce jour, 21 Août, Mercredi

    Heure Température Précipitation Vent Pression Humidité
    00:00 +6°C° 1.5 mm 2 m/s 602 mmHg 98%
    01:00 +5°C° 0 mm 2 m/s 602 mmHg 98%
    02:00 +5°C° 1.2 mm 2 m/s 601 mmHg 98%
    03:00 +6°C° 1.2 mm 1 m/s 601 mmHg 97%
    04:00 +5°C° 1.2 mm 1 m/s 601 mmHg 97%
    05:00 +6°C° 0.9 mm 1 m/s 601 mmHg 97%
    06:00 +6°C° 0.9 mm 1 m/s 602 mmHg 97%
    07:00 +6°C° 0.9 mm 1 m/s 602 mmHg 96%
    08:00 +7°C° 0.2 mm 1 m/s 602 mmHg 92%
    09:00 +9°C° 0.2 mm 1 m/s 603 mmHg 88%
    10:00 +10°C° 0.2 mm 1 m/s 603 mmHg 84%
    11:00 +11°C° 0.2 mm 1 m/s 603 mmHg 82%
    12:00 +11°C° 0.2 mm 1 m/s 603 mmHg 79%
    13:00 +12°C° 0.2 mm 1 m/s 604 mmHg 76%
    14:00 +12°C° 0.4 mm 2 m/s 604 mmHg 77%
    15:00 +12°C° 0.4 mm 2 m/s 603 mmHg 78%
    16:00 +12°C° 0.4 mm 2 m/s 603 mmHg 80%
    17:00 +11°C° 0.3 mm 1 m/s 603 mmHg 84%
    18:00 +10°C° 0.3 mm 1 m/s 603 mmHg 88%
    19:00 +9°C° 0.3 mm 1 m/s 602 mmHg 93%
    20:00 +9°C° 0.2 mm 1 m/s 602 mmHg 93%
    21:00 +8°C° 0.2 mm 1 m/s 602 mmHg 94%
    22:00 +8°C° 0.2 mm 1 m/s 602 mmHg 95%
    23:00 +8°C° 0.1 mm 1 m/s 602 mmHg 93%

    Demain, 22 Août, Jeudi

    Heure Température Précipitation Vent Pression Humidité
    00:00 +8°C° 0.1 mm 1 m/s 602 mmHg 92%
    01:00 +8°C° 0.1 mm 1 m/s 602 mmHg 91%
    02:00 +8°C° 0.1 mm 1 m/s 601 mmHg 91%
    03:00 +8°C° 0.1 mm 1 m/s 601 mmHg 90%
    04:00 +8°C° 0.1 mm 1 m/s 601 mmHg 89%
    05:00 +9°C° 0 mm 1 m/s 601 mmHg 87%
    06:00 +9°C° 0 mm 0 m/s 602 mmHg 85%
    07:00 +10°C° 0 mm 0 m/s 603 mmHg 82%
    08:00 +12°C° 0 mm 0 m/s 603 mmHg 75%
    09:00 +14°C° 0 mm 1 m/s 604 mmHg 68%
    10:00 +16°C° 0 mm 1 m/s 605 mmHg 62%
    11:00 +18°C° 0.4 mm 1 m/s 605 mmHg 59%
    12:00 +19°C° 0.4 mm 1 m/s 606 mmHg 57%
    13:00 +18°C° 0.4 mm 2 m/s 606 mmHg 55%
    14:00 +19°C° 0.9 mm 1 m/s 605 mmHg 60%
    15:00 +18°C° 0.9 mm 1 m/s 605 mmHg 65%
    16:00 +16°C° 0.9 mm 1 m/s 604 mmHg 70%
    17:00 +15°C° 0.8 mm 1 m/s 604 mmHg 77%
    18:00 +13°C° 0.8 mm 1 m/s 603 mmHg 84%
    19:00 +12°C° 0.8 mm 1 m/s 603 mmHg 91%
    20:00 +10°C° 0.2 mm 0 m/s 603 mmHg 91%
    21:00 +9°C° 0.2 mm 0 m/s 603 mmHg 92%
    22:00 +8°C° 0.2 mm 0 m/s 602 mmHg 92%
    23:00 +8°C° 0 mm 0 m/s 602 mmHg 91%

    Après-demain, 23 Août, Vendredi

    Heure Température Précipitation Vent Pression Humidité
    00:00 +8°C° 0 mm 0 m/s 602 mmHg 91%
    01:00 +9°C° 0 mm 1 m/s 602 mmHg 90%
    02:00 +9°C° 0 mm 1 m/s 602 mmHg 90%
    03:00 +9°C° 0 mm 1 m/s 602 mmHg 89%
    04:00 +8°C° 0 mm 1 m/s 601 mmHg 89%
    05:00 +9°C° 0 mm 1 m/s 602 mmHg 87%
    06:00 +10°C° 0 mm 1 m/s 602 mmHg 86%
    07:00 +11°C° 0 mm 1 m/s 603 mmHg 84%
    08:00 +13°C° 0.1 mm 1 m/s 604 mmHg 78%
    09:00 +15°C° 0.1 mm 1 m/s 604 mmHg 72%
    10:00 +18°C° 0.1 mm 1 m/s 605 mmHg 65%
    11:00 +18°C° 0.8 mm 1 m/s 605 mmHg 64%
    12:00 +19°C° 0.8 mm 1 m/s 605 mmHg 62%
    13:00 +19°C° 0.8 mm 1 m/s 605 mmHg 61%
    14:00 +19°C° 1.1 mm 1 m/s 605 mmHg 64%
    15:00 +18°C° 1.1 mm 1 m/s 604 mmHg 67%
    16:00 +18°C° 1.1 mm 1 m/s 604 mmHg 70%
    17:00 +15°C° 0.8 mm 1 m/s 603 mmHg 76%
    18:00 +14°C° 0.8 mm 1 m/s 603 mmHg 83%
    19:00 +12°C° 0.8 mm 1 m/s 602 mmHg 89%
    20:00 +12°C° 0.4 mm 1 m/s 602 mmHg 89%
    21:00 +11°C° 0.4 mm 1 m/s 602 mmHg 89%
    22:00 +10°C° 0.4 mm 1 m/s 602 mmHg 88%
    23:00 +10°C° 0 mm 1 m/s 601 mmHg 88%

    24 Août, Samedi

    Heure Température Précipitation Vent Pression Humidité
    00:00 +10°C° 0 mm 1 m/s 601 mmHg 87%
    01:00 +9°C° 0 mm 1 m/s 601 mmHg 87%
    02:00 +9°C° 0 mm 1 m/s 600 mmHg 86%
    03:00 +9°C° 0 mm 1 m/s 600 mmHg 86%
    04:00 +8°C° 0 mm 1 m/s 600 mmHg 86%
    05:00 +10°C° 0 mm 1 m/s 600 mmHg 84%
    06:00 +11°C° 0 mm 1 m/s 601 mmHg 82%
    07:00 +12°C° 0 mm 1 m/s 601 mmHg 80%
    08:00 +14°C° 0 mm 1 m/s 602 mmHg 72%
    09:00 +16°C° 0 mm 1 m/s 603 mmHg 63%
    10:00 +19°C° 0 mm 1 m/s 604 mmHg 54%
    11:00 +20°C° 0.3 mm 1 m/s 604 mmHg 53%
    12:00 +20°C° 0.3 mm 1 m/s 604 mmHg 52%
    13:00 +21°C° 0.3 mm 1 m/s 604 mmHg 51%
    14:00 +20°C° 1 mm 1 m/s 604 mmHg 57%
    15:00 +19°C° 1 mm 1 m/s 603 mmHg 63%
    16:00 +18°C° 1 mm 1 m/s 602 mmHg 69%
    17:00 +15°C° 1.1 mm 1 m/s 602 mmHg 76%
    18:00 +14°C° 1.1 mm 1 m/s 601 mmHg 83%
    19:00 +11°C° 1.1 mm 0 m/s 600 mmHg 89%
    20:00 +12°C° 0.3 mm 1 m/s 600 mmHg 88%
    21:00 +11°C° 0.3 mm 1 m/s 600 mmHg 88%
    22:00 +11°C° 0.3 mm 1 m/s 600 mmHg 87%
    23:00 +10°C° 0 mm 1 m/s 600 mmHg 87%

    25 Août, Dimanche

    Heure Température Précipitation Vent Pression Humidité
    00:00 +10°C° 0 mm 1 m/s 600 mmHg 87%
    01:00 +9°C° 0 mm 1 m/s 599 mmHg 87%
    02:00 +9°C° 0 mm 1 m/s 599 mmHg 87%
    03:00 +9°C° 0 mm 1 m/s 599 mmHg 87%
    04:00 +8°C° 0 mm 1 m/s 599 mmHg 87%
    05:00 +10°C° 0 mm 1 m/s 599 mmHg 84%
    06:00 +11°C° 0 mm 1 m/s 600 mmHg 82%
    07:00 +11°C° 0 mm 0 m/s 601 mmHg 79%
    08:00 +14°C° 0 mm 1 m/s 602 mmHg 71%
    09:00 +16°C° 0 mm 1 m/s 602 mmHg 64%
    10:00 +19°C° 0 mm 1 m/s 603 mmHg 56%
    11:00 +20°C° 0.6 mm 1 m/s 603 mmHg 55%
    12:00 +20°C° 0.6 mm 1 m/s 603 mmHg 54%
    13:00 +21°C° 0.6 mm 1 m/s 603 mmHg 53%
    14:00 +20°C° 1.3 mm 1 m/s 603 mmHg 59%
    15:00 +19°C° 1.3 mm 1 m/s 602 mmHg 65%
    16:00 +18°C° 1.3 mm 1 m/s 602 mmHg 70%
    17:00 +16°C° 1 mm 1 m/s 601 mmHg 76%
    18:00 +14°C° 1 mm 1 m/s 601 mmHg 82%
    19:00 +12°C° 1 mm 0 m/s 600 mmHg 88%
    20:00 +12°C° 0.4 mm 1 m/s 600 mmHg 88%
    21:00 +12°C° 0.4 mm 1 m/s 600 mmHg 88%
    22:00 +11°C° 0.4 mm 1 m/s 600 mmHg 88%
    23:00 +10°C° 0 mm 1 m/s 600 mmHg 88%

    26 Août, Lundi

    Heure Température Précipitation Vent Pression Humidité
    00:00 +10°C° 0 mm 1 m/s 600 mmHg 88%
    01:00 +8°C° 0 mm 0 m/s 599 mmHg 88%
    02:00 +9°C° 0 mm 1 m/s 599 mmHg 89%
    03:00 +9°C° 0 mm 1 m/s 599 mmHg 89%
    04:00 +8°C° 0 mm 1 m/s 599 mmHg 89%
    05:00 +10°C° 0 mm 1 m/s 599 mmHg 87%
    06:00 +11°C° 0 mm 1 m/s 600 mmHg 84%
    07:00 +12°C° 0 mm 1 m/s 601 mmHg 82%
    08:00 +14°C° 0.2 mm 1 m/s 602 mmHg 76%
    09:00 +16°C° 0.2 mm 1 m/s 603 mmHg 69%
    10:00 +19°C° 0.2 mm 1 m/s 603 mmHg 63%
    11:00 +19°C° 1.1 mm 1 m/s 603 mmHg 62%
    12:00 +18°C° 1.1 mm 2 m/s 603 mmHg 61%
    13:00 +18°C° 1.1 mm 2 m/s 603 mmHg 61%
    14:00 +18°C° 0.7 mm 2 m/s 603 mmHg 59%
    15:00 +18°C° 0.7 mm 2 m/s 603 mmHg 58%
    16:00 +18°C° 0.7 mm 2 m/s 603 mmHg 56%
    17:00 +16°C° 0.1 mm 2 m/s 602 mmHg 64%
    18:00 +14°C° 0.1 mm 1 m/s 602 mmHg 73%
    19:00 +12°C° 0.1 mm 1 m/s 601 mmHg 81%
    20:00 +11°C° 0 mm 1 m/s 601 mmHg 82%
    21:00 +10°C° 0 mm 1 m/s 601 mmHg 83%
    22:00 +9°C° 0 mm 1 m/s 601 mmHg 84%
    23:00 +9°C° 0 mm 1 m/s 601 mmHg 84%
    Voir plus